Погода в Меньших Можары

Россия / Рязанская область     53°53′19″N   41°01′28″E
темп.,
°C
ветер,
м/с
пор.,
м/с
влажн.,
%
обл.,
%
осадки,
мм/ч
давл.,
гПа
погр.,
м
21 апреля, ср
ср2100:00+5в71695100 4.6 10071130
03:00+7юв101893100 7.4 10021040
06:00+7ю41296100 0.8 1003811
09:00+9ю41294100 2.9 1005991
12:00+5зюз3695100 1.4 1008305
15:00+4зюз3794100 1.7 1010492
18:00+5юз4887100 0.0 1012872
21:00+5ююз3889100 0.0 1014360
22 апреля, чт
чт2200:00+5ю2791100 0.0 1015239
03:00+5ююз3996100 0.4 1016419
06:00+5зюз269699 0.3 1017390
09:00+8юз457074 0.3 10191001
12:00+11юз565643 0.1 10191619
15:00+13юз4750100 0.1 10191844
18:00+12ююз476446 0.0 1019653
21:00+8ююв38805 0.0 1020157
23 апреля, пт
пт2300:00+7ю3117856 0.0 1020228
03:00+6ю398031 0.0 1020156
06:00+8ю3107698 0.0 1020234
09:00+14ю595446 0.0 1020647
12:00+16ю5743100 0.0 10192564
15:00+16ю574077 0.0 10182277
18:00+14ююв48545 0.0 1016586
21:00+9юв311777 0.3 1016236
24 апреля, сб
сб2400:00+9ююв411835 0.0 1014291
03:00+8юв4129124 0.0 1011306
06:00+8ююв4118834 0.1 1010371
09:00+10юз5977100 0.3 10091047
12:00+3зсз5896100 3.0 1010468
15:00+6зсз4681100 5.0 1009866
18:00+7сз2680100 0.8 1009628
21:00+4юз2281100 1.4 101037
25 апреля, вс
вс2500:00+3з310825 0.0 1010219
03:00+2зюз39885 0.0 1011220
06:00+2зюз410885 0.0 1011422
09:00+6зюз69675 0.0 10121149
12:00+8зюз6853100 0.8 10122080
15:00+8зюз71054100 2.1 10122238
18:00+6юз686241 0.3 10131068
21:00+3юз410725 0.4 1014323